Time,TemperatureF,DewpointF,PressureIn,WindDirection,WindDirectionDegrees,WindSpeedMPH,WindSpeedGustMPH,Humidity,HourlyPrecipIn,Conditions,Clouds,dailyrainin,SoftwareType,DateUTC
2013-10-27 00:05:00,41.9,38.0,30.13,South,188,2.0,15.0,86,0.00,,,0.00,Wunderground v.1.15,2013-10-27 03:05:00,
2013-10-27 00:10:00,41.7,37.8,30.13,SSW,193,2.0,2.0,86,0.00,,,0.01,Wunderground v.1.15,2013-10-27 03:10:00,
2013-10-27 00:15:00,41.6,38.0,30.13,South,185,2.0,15.0,87,0.00,,,0.01,Wunderground v.1.15,2013-10-27 03:15:00,
2013-10-27 00:20:00,41.6,38.0,30.13,South,169,2.0,15.0,87,0.00,,,0.01,Wunderground v.1.15,2013-10-27 03:20:00,
2013-10-27 00:25:00,41.5,38.2,30.13,SSW,210,1.0,15.0,88,0.00,,,0.01,Wunderground v.1.15,2013-10-27 03:25:00,
2013-10-27 00:35:00,41.4,38.4,30.13,SE,142,1.0,15.0,89,0.00,,,0.02,Wunderground v.1.15,2013-10-27 03:35:00,
2013-10-27 00:40:00,41.4,38.4,30.12,SSE,158,1.0,15.0,89,0.00,,,0.02,Wunderground v.1.15,2013-10-27 03:40:00,
2013-10-27 00:45:00,41.4,38.4,30.12,SSE,150,1.0,15.0,89,0.00,,,0.02,Wunderground v.1.15,2013-10-27 03:45:00,
2013-10-27 00:50:00,41.3,38.6,30.12,SE,124,1.0,15.0,90,0.00,,,0.02,Wunderground v.1.15,2013-10-27 03:50:00,
2013-10-27 00:55:00,41.3,38.6,30.12,SE,133,1.0,15.0,90,0.00,,,0.02,Wunderground v.1.15,2013-10-27 03:55:00,
2013-10-27 01:00:00,41.2,38.5,30.12,ESE,112,1.0,15.0,90,0.00,,,0.02,Wunderground v.1.15,2013-10-27 04:00:00,
2013-10-27 01:05:00,41.2,38.8,30.12,SSE,148,1.0,15.0,91,0.04,,,0.03,Wunderground v.1.15,2013-10-27 04:05:00,
2013-10-27 01:10:00,41.1,38.7,30.11,ESE,110,2.0,2.0,91,0.04,,,0.03,Wunderground v.1.15,2013-10-27 04:10:00,
2013-10-27 01:15:00,41.1,39.0,30.11,ESE,110,2.0,15.0,92,0.07,,,0.04,Wunderground v.1.15,2013-10-27 04:15:00,
2013-10-27 01:20:00,41.1,39.0,30.11,SE,129,1.0,1.0,92,0.07,,,0.04,Wunderground v.1.15,2013-10-27 04:20:00,
2013-10-27 01:25:00,41.0,38.9,30.11,ESE,102,1.0,15.0,92,0.05,,,0.05,Wunderground v.1.15,2013-10-27 04:25:00,
2013-10-27 01:30:00,41.0,38.9,30.11,ESE,109,1.0,15.0,92,0.05,,,0.05,Wunderground v.1.15,2013-10-27 04:30:00,
2013-10-27 01:40:00,40.9,39.0,30.11,ESE,104,2.0,2.0,93,0.12,,,0.06,Wunderground v.1.15,2013-10-27 04:40:00,
2013-10-27 01:45:00,40.8,38.9,30.11,East,91,1.0,3.0,93,0.12,,,0.07,Wunderground v.1.15,2013-10-27 04:45:00,
2013-10-27 01:50:00,40.8,38.9,30.11,SE,139,2.0,2.0,93,0.17,,,0.09,Wunderground v.1.15,2013-10-27 04:50:00,
2013-10-27 01:55:00,40.7,38.8,30.11,SSE,165,1.0,15.0,93,0.16,,,0.09,Wunderground v.1.15,2013-10-27 04:55:00,
2013-10-27 02:00:00,40.7,38.8,30.11,SSE,150,1.0,1.0,93,0.14,,,0.10,Wunderground v.1.15,2013-10-27 05:00:00,
2013-10-27 02:05:00,40.7,39.1,30.11,SE,127,2.0,2.0,94,0.09,,,0.11,Wunderground v.1.15,2013-10-27 05:05:00,
2013-10-27 02:15:00,40.6,39.0,30.11,South,175,1.0,15.0,94,0.10,,,0.13,Wunderground v.1.15,2013-10-27 05:15:00,
2013-10-27 02:20:00,40.6,39.0,30.10,SSE,165,1.0,15.0,94,0.10,,,0.13,Wunderground v.1.15,2013-10-27 05:20:00,
2013-10-27 02:25:00,40.6,39.0,30.10,SSE,152,1.0,15.0,94,0.06,,,0.13,Wunderground v.1.15,2013-10-27 05:25:00,
2013-10-27 02:30:00,40.6,39.0,30.10,SE,129,1.0,1.0,94,0.06,,,0.13,Wunderground v.1.15,2013-10-27 05:30:00,
2013-10-27 02:35:00,40.6,39.0,30.10,ESE,120,0.0,15.0,94,0.06,,,0.13,Wunderground v.1.15,2013-10-27 05:35:00,
2013-10-27 02:45:00,40.6,39.0,30.09,SE,139,1.0,15.0,94,0.00,,,0.14,Wunderground v.1.15,2013-10-27 05:45:00,
2013-10-27 02:50:00,40.6,39.0,30.09,SE,124,2.0,15.0,94,0.00,,,0.14,Wunderground v.1.15,2013-10-27 05:50:00,
2013-10-27 02:55:00,40.6,39.3,30.09,ESE,102,1.0,15.0,95,0.00,,,0.14,Wunderground v.1.15,2013-10-27 05:55:00,
2013-10-27 03:00:00,40.7,39.4,30.09,SSW,198,2.0,15.0,95,0.04,,,0.15,Wunderground v.1.15,2013-10-27 06:00:00,
2013-10-27 03:05:00,40.7,39.4,30.09,SE,144,2.0,15.0,95,0.04,,,0.15,Wunderground v.1.15,2013-10-27 06:05:00,
2013-10-27 03:10:00,40.7,39.4,30.09,SE,140,1.0,15.0,95,0.04,,,0.15,Wunderground v.1.15,2013-10-27 06:10:00,
2013-10-27 03:15:00,40.7,39.4,30.08,ESE,121,0.0,15.0,95,0.04,,,0.15,Wunderground v.1.15,2013-10-27 06:15:00,
2013-10-27 03:20:00,40.6,39.3,30.08,ESE,121,0.0,15.0,95,0.00,,,0.15,Wunderground v.1.15,2013-10-27 06:20:00,
2013-10-27 03:25:00,40.5,39.2,30.08,ESE,121,0.0,15.0,95,0.00,,,0.15,Wunderground v.1.15,2013-10-27 06:25:00,
2013-10-27 03:30:00,40.4,39.1,30.08,ESE,110,0.0,15.0,95,0.00,,,0.15,Wunderground v.1.15,2013-10-27 06:30:00,
2013-10-27 03:35:00,40.3,39.0,30.08,ESE,117,0.0,15.0,95,0.00,,,0.15,Wunderground v.1.15,2013-10-27 06:35:00,
2013-10-27 03:40:00,40.3,39.0,30.08,ESE,117,0.0,15.0,95,0.00,,,0.15,Wunderground v.1.15,2013-10-27 06:40:00,
2013-10-27 03:50:00,40.2,38.9,30.07,ESE,108,0.0,15.0,95,0.00,,,0.15,Wunderground v.1.15,2013-10-27 06:50:00,
2013-10-27 03:55:00,40.1,38.8,30.07,SE,131,0.0,15.0,95,0.00,,,0.15,Wunderground v.1.15,2013-10-27 06:55:00,
2013-10-27 04:00:00,40.1,38.8,30.07,SE,127,0.0,15.0,95,0.00,,,0.15,Wunderground v.1.15,2013-10-27 07:00:00,
2013-10-27 04:05:00,40.1,38.8,30.06,SE,127,0.0,15.0,95,0.00,,,0.15,Wunderground v.1.15,2013-10-27 07:05:00,
2013-10-27 04:10:00,40.1,38.8,30.06,SE,128,0.0,15.0,95,0.00,,,0.15,Wunderground v.1.15,2013-10-27 07:10:00,
2013-10-27 04:20:00,40.1,38.8,30.06,SE,128,0.0,15.0,95,0.00,,,0.15,Wunderground v.1.15,2013-10-27 07:20:00,
2013-10-27 04:25:00,40.1,38.8,30.06,SE,129,0.0,15.0,95,0.00,,,0.15,Wunderground v.1.15,2013-10-27 07:25:00,
2013-10-27 04:30:00,40.1,38.8,30.06,SE,127,0.0,15.0,95,0.00,,,0.15,Wunderground v.1.15,2013-10-27 07:30:00,
2013-10-27 04:35:00,40.1,38.8,30.06,SE,129,0.0,15.0,95,0.00,,,0.15,Wunderground v.1.15,2013-10-27 07:35:00,
2013-10-27 04:40:00,40.1,38.8,30.05,SE,128,0.0,15.0,95,0.00,,,0.15,Wunderground v.1.15,2013-10-27 07:40:00,
2013-10-27 04:45:00,40.2,39.2,30.05,ESE,118,1.0,15.0,96,0.00,,,0.15,Wunderground v.1.15,2013-10-27 07:45:00,
2013-10-27 04:55:00,40.3,39.3,30.05,ESE,119,1.0,2.0,96,0.00,,,0.15,Wunderground v.1.15,2013-10-27 07:55:00,
2013-10-27 05:00:00,40.4,39.4,30.05,East,91,0.0,15.0,96,0.00,,,0.15,Wunderground v.1.15,2013-10-27 08:00:00,
2013-10-27 05:05:00,40.4,39.4,30.04,NE,54,1.0,15.0,96,0.00,,,0.15,Wunderground v.1.15,2013-10-27 08:05:00,
2013-10-27 05:10:00,40.4,39.4,30.05,South,177,1.0,1.0,96,0.00,,,0.15,Wunderground v.1.15,2013-10-27 08:10:00,
2013-10-27 05:15:00,40.4,39.4,30.05,SSW,207,1.0,15.0,96,0.00,,,0.15,Wunderground v.1.15,2013-10-27 08:15:00,
2013-10-27 05:25:00,40.5,39.4,30.05,SW,224,0.0,15.0,96,0.00,,,0.15,Wunderground v.1.15,2013-10-27 08:25:00,
2013-10-27 05:30:00,40.5,39.4,30.05,SW,224,0.0,15.0,96,0.00,,,0.15,Wunderground v.1.15,2013-10-27 08:30:00,
2013-10-27 05:35:00,40.5,39.4,30.05,SW,224,0.0,15.0,96,0.00,,,0.15,Wunderground v.1.15,2013-10-27 08:35:00,
2013-10-27 05:40:00,40.5,39.4,30.05,SW,224,0.0,15.0,96,0.00,,,0.15,Wunderground v.1.15,2013-10-27 08:40:00,
2013-10-27 05:45:00,40.6,39.5,30.05,SW,224,0.0,15.0,96,0.00,,,0.15,Wunderground v.1.15,2013-10-27 08:45:00,
2013-10-27 05:50:00,40.6,39.5,30.05,SW,224,0.0,15.0,96,0.00,,,0.15,Wunderground v.1.15,2013-10-27 08:50:00,
2013-10-27 06:00:00,40.6,39.5,30.04,SW,224,0.0,15.0,96,0.00,,,0.15,Wunderground v.1.15,2013-10-27 09:00:00,
2013-10-27 06:05:00,40.6,39.5,30.05,SW,224,0.0,15.0,96,0.00,,,0.15,Wunderground v.1.15,2013-10-27 09:05:00,
2013-10-27 06:10:00,40.5,39.4,30.04,SW,224,0.0,15.0,96,0.00,,,0.15,Wunderground v.1.15,2013-10-27 09:10:00,
2013-10-27 06:15:00,40.6,39.5,30.05,SW,224,0.0,15.0,96,0.00,,,0.15,Wunderground v.1.15,2013-10-27 09:15:00,
2013-10-27 06:20:00,40.5,39.4,30.04,SW,224,0.0,15.0,96,0.00,,,0.15,Wunderground v.1.15,2013-10-27 09:20:00,
2013-10-27 06:30:00,40.5,39.4,30.02,East,89,1.0,1.0,96,0.00,,,0.15,Wunderground v.1.15,2013-10-27 09:30:00,
2013-10-27 06:35:00,40.4,39.4,30.03,ESE,110,1.0,15.0,96,0.00,,,0.15,Wunderground v.1.15,2013-10-27 09:35:00,
2013-10-27 06:40:00,40.3,39.3,30.03,ESE,110,0.0,15.0,96,0.00,,,0.15,Wunderground v.1.15,2013-10-27 09:40:00,
2013-10-27 06:45:00,40.2,39.2,30.03,SSW,197,0.0,15.0,96,0.00,,,0.15,Wunderground v.1.15,2013-10-27 09:45:00,
2013-10-27 06:50:00,40.2,39.2,30.03,SSW,197,0.0,15.0,96,0.00,,,0.15,Wunderground v.1.15,2013-10-27 09:50:00,
2013-10-27 06:55:00,40.1,39.1,30.03,SSW,198,0.0,15.0,96,0.00,,,0.15,Wunderground v.1.15,2013-10-27 09:55:00,
2013-10-27 07:00:00,40.2,39.2,30.03,SSW,197,0.0,15.0,96,0.00,,,0.15,Wunderground v.1.15,2013-10-27 10:00:00,
2013-10-27 07:05:00,40.2,39.2,30.03,SSW,198,0.0,15.0,96,0.00,,,0.15,Wunderground v.1.15,2013-10-27 10:05:00,
2013-10-27 07:10:00,40.2,39.2,30.02,SSW,197,0.0,15.0,96,0.00,,,0.15,Wunderground v.1.15,2013-10-27 10:10:00,
2013-10-27 07:15:00,40.1,39.1,30.02,SSW,197,0.0,15.0,96,0.00,,,0.15,Wunderground v.1.15,2013-10-27 10:15:00,
2013-10-27 07:20:00,40.1,39.1,30.02,SSW,197,0.0,15.0,96,0.00,,,0.15,Wunderground v.1.15,2013-10-27 10:20:00,
2013-10-27 07:25:00,40.0,39.0,30.02,SSW,197,0.0,15.0,96,0.00,,,0.15,Wunderground v.1.15,2013-10-27 10:25:00,
2013-10-27 07:35:00,39.9,38.9,30.02,SSW,198,0.0,15.0,96,0.00,,,0.15,Wunderground v.1.15,2013-10-27 10:35:00,
2013-10-27 07:40:00,39.9,38.9,30.02,SSW,198,0.0,15.0,96,0.00,,,0.15,Wunderground v.1.15,2013-10-27 10:40:00,
2013-10-27 07:45:00,39.8,38.8,30.02,SSW,198,0.0,15.0,96,0.00,,,0.15,Wunderground v.1.15,2013-10-27 10:45:00,
2013-10-27 07:50:00,39.6,38.6,30.01,SSW,198,0.0,15.0,96,0.00,,,0.15,Wunderground v.1.15,2013-10-27 10:50:00,
2013-10-27 07:55:00,39.6,38.6,30.01,SSW,197,0.0,15.0,96,0.00,,,0.15,Wunderground v.1.15,2013-10-27 10:55:00,
2013-10-27 08:05:00,39.5,38.5,30.01,SSE,148,0.0,15.0,96,0.00,,,0.15,Wunderground v.1.15,2013-10-27 11:05:00,
2013-10-27 08:10:00,39.5,38.5,30.01,SE,131,0.0,15.0,96,0.00,,,0.15,Wunderground v.1.15,2013-10-27 11:10:00,
2013-10-27 08:15:00,39.7,38.7,30.01,ESE,117,0.0,15.0,96,0.00,,,0.15,Wunderground v.1.15,2013-10-27 11:15:00,
2013-10-27 08:20:00,39.9,38.9,30.01,ESE,110,1.0,15.0,96,0.00,,,0.15,Wunderground v.1.15,2013-10-27 11:20:00,
2013-10-27 08:25:00,40.0,39.0,30.01,ESE,110,1.0,15.0,96,0.00,,,0.15,Wunderground v.1.15,2013-10-27 11:25:00,
2013-10-27 08:30:00,40.0,39.0,30.01,ESE,112,0.0,15.0,96,0.00,,,0.15,Wunderground v.1.15,2013-10-27 11:30:00,
2013-10-27 08:40:00,40.2,39.2,30.00,ESE,105,0.0,15.0,96,0.00,,,0.15,Wunderground v.1.15,2013-10-27 11:40:00,
2013-10-27 08:45:00,40.4,39.4,30.00,SE,134,1.0,15.0,96,0.00,,,0.15,Wunderground v.1.15,2013-10-27 11:45:00,
2013-10-27 08:50:00,40.5,39.4,30.00,SSE,150,1.0,1.0,96,0.00,,,0.15,Wunderground v.1.15,2013-10-27 11:50:00,
2013-10-27 08:55:00,40.7,39.9,30.00,SE,131,1.0,15.0,97,0.00,,,0.15,Wunderground v.1.15,2013-10-27 11:55:00,
2013-10-27 09:00:00,40.8,40.0,30.00,SSE,148,1.0,15.0,97,0.00,,,0.15,Wunderground v.1.15,2013-10-27 12:00:00,
2013-10-27 09:10:00,41.2,40.4,30.00,SE,143,2.0,15.0,97,0.00,,,0.15,Wunderground v.1.15,2013-10-27 12:10:00,
2013-10-27 09:15:00,41.3,40.5,30.00,SE,131,2.0,15.0,97,0.00,,,0.15,Wunderground v.1.15,2013-10-27 12:15:00,
2013-10-27 09:20:00,41.4,40.6,30.00,East,101,2.0,15.0,97,0.00,,,0.15,Wunderground v.1.15,2013-10-27 12:20:00,
2013-10-27 09:25:00,41.6,40.8,30.00,ESE,108,2.0,15.0,97,0.00,,,0.15,Wunderground v.1.15,2013-10-27 12:25:00,
2013-10-27 09:30:00,41.7,40.9,30.00,South,179,2.0,2.0,97,0.00,,,0.15,Wunderground v.1.15,2013-10-27 12:30:00,
2013-10-27 09:35:00,42.0,41.2,30.00,SSW,195,2.0,15.0,97,0.00,,,0.15,Wunderground v.1.15,2013-10-27 12:35:00,
2013-10-27 09:45:00,42.7,41.9,30.00,ESE,119,2.0,15.0,97,0.00,,,0.15,Wunderground v.1.15,2013-10-27 12:45:00,
2013-10-27 09:50:00,43.1,42.3,30.00,SE,146,2.0,15.0,97,0.00,,,0.15,Wunderground v.1.15,2013-10-27 12:50:00,
2013-10-27 09:55:00,43.6,42.8,30.00,South,183,2.0,15.0,97,0.00,,,0.15,Wunderground v.1.15,2013-10-27 12:55:00,
2013-10-27 10:00:00,44.0,43.2,29.99,South,174,2.0,15.0,97,0.00,,,0.15,Wunderground v.1.15,2013-10-27 13:00:00,
2013-10-27 10:05:00,44.5,43.7,29.99,ESE,108,3.0,15.0,97,0.00,,,0.15,Wunderground v.1.15,2013-10-27 13:05:00,
2013-10-27 10:15:00,45.3,44.5,29.99,SE,142,3.0,15.0,97,0.00,,,0.15,Wunderground v.1.15,2013-10-27 13:15:00,
2013-10-27 10:20:00,45.7,44.9,29.99,South,174,3.0,3.0,97,0.00,,,0.15,Wunderground v.1.15,2013-10-27 13:20:00,
2013-10-27 10:25:00,46.0,45.2,29.99,South,184,3.0,15.0,97,0.00,,,0.15,Wunderground v.1.15,2013-10-27 13:25:00,
2013-10-27 10:30:00,46.3,45.5,29.99,South,187,3.0,15.0,97,0.00,,,0.15,Wunderground v.1.15,2013-10-27 13:30:00,
2013-10-27 10:35:00,46.5,45.4,29.99,SE,143,4.0,15.0,96,0.00,,,0.15,Wunderground v.1.15,2013-10-27 13:35:00,
2013-10-27 10:40:00,46.6,45.5,29.99,SSE,150,5.0,15.0,96,0.00,,,0.15,Wunderground v.1.15,2013-10-27 13:40:00,
2013-10-27 10:45:00,46.7,45.3,29.99,SSE,168,5.0,15.0,95,0.00,,,0.15,Wunderground v.1.15,2013-10-27 13:45:00,
2013-10-27 10:55:00,46.7,45.1,29.98,SE,141,5.0,15.0,94,0.00,,,0.16,Wunderground v.1.15,2013-10-27 13:55:00,
2013-10-27 11:00:00,46.6,45.0,29.98,SE,139,4.0,4.0,94,0.00,,,0.16,Wunderground v.1.15,2013-10-27 14:00:00,
2013-10-27 11:05:00,46.5,44.6,29.98,South,190,4.0,6.0,93,0.00,,,0.16,Wunderground v.1.15,2013-10-27 14:05:00,
2013-10-27 11:10:00,46.4,44.2,29.98,SSE,162,4.0,15.0,92,0.00,,,0.16,Wunderground v.1.15,2013-10-27 14:10:00,
2013-10-27 11:15:00,46.3,44.1,29.99,SSW,193,5.0,15.0,92,0.00,,,0.17,Wunderground v.1.15,2013-10-27 14:15:00,
2013-10-27 11:20:00,46.1,43.6,29.98,South,191,5.0,15.0,91,0.00,,,0.17,Wunderground v.1.15,2013-10-27 14:20:00,
2013-10-27 11:25:00,46.0,43.5,29.98,SSE,156,5.0,15.0,91,0.00,,,0.17,Wunderground v.1.15,2013-10-27 14:25:00,
2013-10-27 11:30:00,45.8,43.3,29.98,South,176,6.0,6.0,91,0.00,,,0.17,Wunderground v.1.15,2013-10-27 14:30:00,
2013-10-27 11:35:00,45.7,43.2,29.98,South,187,5.0,15.0,91,0.04,,,0.17,Wunderground v.1.15,2013-10-27 14:35:00,
2013-10-27 11:40:00,45.5,43.0,29.98,SSE,166,5.0,15.0,91,0.08,,,0.18,Wunderground v.1.15,2013-10-27 14:40:00,
2013-10-27 11:50:00,45.2,42.7,29.98,South,190,5.0,5.0,91,0.07,,,0.19,Wunderground v.1.15,2013-10-27 14:50:00,
2013-10-27 11:55:00,45.1,42.6,29.97,SSW,212,5.0,15.0,91,0.07,,,0.19,Wunderground v.1.15,2013-10-27 14:55:00,
2013-10-27 12:00:00,44.9,42.4,29.97,SSW,200,5.0,15.0,91,0.06,,,0.20,Wunderground v.1.15,2013-10-27 15:00:00,
2013-10-27 12:05:00,44.7,42.2,29.96,SSW,192,4.0,15.0,91,0.10,,,0.20,Wunderground v.1.15,2013-10-27 15:05:00,
2013-10-27 12:10:00,44.6,42.1,29.96,SW,236,3.0,3.0,91,0.10,,,0.20,Wunderground v.1.15,2013-10-27 15:10:00,
2013-10-27 12:15:00,44.5,42.3,29.96,South,188,2.0,15.0,92,0.08,,,0.21,Wunderground v.1.15,2013-10-27 15:15:00,
2013-10-27 12:25:00,44.3,42.1,29.95,South,185,3.0,15.0,92,0.06,,,0.22,Wunderground v.1.15,2013-10-27 15:25:00,
2013-10-27 12:30:00,44.2,42.0,29.95,SSW,195,2.0,15.0,92,0.10,,,0.23,Wunderground v.1.15,2013-10-27 15:30:00,
2013-10-27 12:35:00,44.0,41.8,29.95,South,188,2.0,15.0,92,0.23,,,0.24,Wunderground v.1.15,2013-10-27 15:35:00,
2013-10-27 12:40:00,43.8,41.6,29.94,SW,229,2.0,15.0,92,0.08,,,0.24,Wunderground v.1.15,2013-10-27 15:40:00,
2013-10-27 12:45:00,43.7,41.5,29.94,South,191,3.0,15.0,92,0.08,,,0.25,Wunderground v.1.15,2013-10-27 15:45:00,
2013-10-27 12:55:00,43.6,41.7,29.93,South,190,1.0,15.0,93,0.10,,,0.27,Wunderground v.1.15,2013-10-27 15:55:00,
2013-10-27 13:00:00,43.5,41.6,29.93,SW,221,1.0,15.0,93,0.09,,,0.27,Wunderground v.1.15,2013-10-27 16:00:00,
2013-10-27 13:05:00,43.6,42.0,29.93,South,191,1.0,15.0,94,0.08,,,0.28,Wunderground v.1.15,2013-10-27 16:05:00,
2013-10-27 13:10:00,43.5,41.9,29.92,South,184,1.0,1.0,94,0.06,,,0.28,Wunderground v.1.15,2013-10-27 16:10:00,
2013-10-27 13:15:00,43.5,41.9,29.92,SSW,212,1.0,15.0,94,0.04,,,0.28,Wunderground v.1.15,2013-10-27 16:15:00,
2013-10-27 13:20:00,43.5,41.9,29.92,South,173,1.0,1.0,94,0.04,,,0.28,Wunderground v.1.15,2013-10-27 16:20:00,
2013-10-27 13:30:00,43.5,41.9,29.91,South,187,0.0,15.0,94,0.08,,,0.29,Wunderground v.1.15,2013-10-27 16:30:00,
2013-10-27 13:35:00,43.6,42.3,29.91,South,187,0.0,15.0,95,0.06,,,0.30,Wunderground v.1.15,2013-10-27 16:35:00,
2013-10-27 13:40:00,43.7,42.4,29.90,South,187,0.0,15.0,95,0.06,,,0.30,Wunderground v.1.15,2013-10-27 16:40:00,
2013-10-27 13:45:00,43.8,42.5,29.91,South,187,0.0,15.0,95,0.06,,,0.30,Wunderground v.1.15,2013-10-27 16:45:00,
2013-10-27 13:50:00,43.9,42.6,29.90,South,187,0.0,15.0,95,0.04,,,0.30,Wunderground v.1.15,2013-10-27 16:50:00,
2013-10-27 14:00:00,44.1,42.8,29.90,South,187,0.0,15.0,95,0.00,,,0.30,Wunderground v.1.15,2013-10-27 17:00:00,
2013-10-27 14:05:00,44.1,42.8,29.89,South,187,0.0,15.0,95,0.00,,,0.31,Wunderground v.1.15,2013-10-27 17:05:00,
2013-10-27 14:10:00,44.1,42.8,29.90,South,187,0.0,15.0,95,0.00,,,0.31,Wunderground v.1.15,2013-10-27 17:10:00,
2013-10-27 14:15:00,44.1,42.8,29.90,South,187,0.0,15.0,95,0.00,,,0.31,Wunderground v.1.15,2013-10-27 17:15:00,
2013-10-27 14:20:00,44.0,42.7,29.89,South,187,0.0,15.0,95,0.00,,,0.31,Wunderground v.1.15,2013-10-27 17:20:00,
2013-10-27 14:25:00,44.0,42.7,29.89,ENE,78,0.0,15.0,95,0.00,,,0.31,Wunderground v.1.15,2013-10-27 17:25:00,
2013-10-27 14:30:00,43.9,42.6,29.88,ENE,77,0.0,15.0,95,0.00,,,0.31,Wunderground v.1.15,2013-10-27 17:30:00,
2013-10-27 14:35:00,44.1,42.8,29.88,ENE,77,0.0,15.0,95,0.00,,,0.31,Wunderground v.1.15,2013-10-27 17:35:00,
2013-10-27 14:40:00,44.3,43.0,29.88,ENE,77,0.0,15.0,95,0.00,,,0.31,Wunderground v.1.15,2013-10-27 17:40:00,
2013-10-27 14:45:00,44.2,42.9,29.88,ENE,78,0.0,15.0,95,0.00,,,0.31,Wunderground v.1.15,2013-10-27 17:45:00,
2013-10-27 14:50:00,44.2,42.9,29.88,SSW,210,0.0,15.0,95,0.00,,,0.31,Wunderground v.1.15,2013-10-27 17:50:00,
2013-10-27 15:00:00,44.2,42.9,29.88,SSW,210,0.0,15.0,95,0.00,,,0.31,Wunderground v.1.15,2013-10-27 18:00:00,
2013-10-27 15:05:00,44.2,42.9,29.88,SSW,210,0.0,15.0,95,0.00,,,0.31,Wunderground v.1.15,2013-10-27 18:05:00,
2013-10-27 15:10:00,44.2,42.9,29.88,SSW,210,0.0,15.0,95,0.00,,,0.31,Wunderground v.1.15,2013-10-27 18:10:00,
2013-10-27 15:15:00,44.3,43.0,29.88,SSW,210,0.0,15.0,95,0.00,,,0.31,Wunderground v.1.15,2013-10-27 18:15:00,
2013-10-27 15:20:00,44.3,43.0,29.87,SSW,210,0.0,15.0,95,0.00,,,0.31,Wunderground v.1.15,2013-10-27 18:20:00,
2013-10-27 15:25:00,44.3,43.0,29.88,SSW,210,0.0,15.0,95,0.08,,,0.32,Wunderground v.1.15,2013-10-27 18:25:00,
2013-10-27 15:35:00,44.1,42.8,29.88,SSW,210,0.0,15.0,95,0.07,,,0.33,Wunderground v.1.15,2013-10-27 18:35:00,
2013-10-27 15:40:00,44.0,42.7,29.88,SSW,210,0.0,15.0,95,0.07,,,0.33,Wunderground v.1.15,2013-10-27 18:40:00,
2013-10-27 15:45:00,44.0,42.7,29.88,SSW,210,0.0,15.0,95,0.04,,,0.33,Wunderground v.1.15,2013-10-27 18:45:00,
2013-10-27 15:50:00,44.1,42.8,29.89,SSW,210,0.0,15.0,95,0.00,,,0.33,Wunderground v.1.15,2013-10-27 18:50:00,
2013-10-27 15:55:00,44.1,42.8,29.88,SSW,210,0.0,15.0,95,0.00,,,0.33,Wunderground v.1.15,2013-10-27 18:55:00,
2013-10-27 16:00:00,44.3,43.2,29.88,SSW,210,0.0,15.0,96,0.00,,,0.33,Wunderground v.1.15,2013-10-27 19:00:00,
2013-10-27 16:10:00,44.4,43.1,29.88,SSW,210,0.0,15.0,95,0.00,,,0.33,Wunderground v.1.15,2013-10-27 19:10:00,
2013-10-27 16:15:00,44.4,43.1,29.88,SW,214,0.0,15.0,95,0.00,,,0.33,Wunderground v.1.15,2013-10-27 19:15:00,
2013-10-27 16:20:00,44.4,43.1,29.88,SW,214,0.0,15.0,95,0.00,,,0.33,Wunderground v.1.15,2013-10-27 19:20:00,
2013-10-27 16:25:00,44.4,43.1,29.88,SW,223,0.0,15.0,95,0.00,,,0.33,Wunderground v.1.15,2013-10-27 19:25:00,
2013-10-27 16:30:00,44.4,43.1,29.88,SW,224,0.0,15.0,95,0.00,,,0.33,Wunderground v.1.15,2013-10-27 19:30:00,
2013-10-27 16:35:00,44.4,43.1,29.88,SSW,208,0.0,15.0,95,0.00,,,0.33,Wunderground v.1.15,2013-10-27 19:35:00,
2013-10-27 16:40:00,44.4,43.3,29.89,SW,217,1.0,15.0,96,0.00,,,0.33,Wunderground v.1.15,2013-10-27 19:40:00,
2013-10-27 16:45:00,44.4,43.3,29.88,West,264,1.0,15.0,96,0.00,,,0.33,Wunderground v.1.15,2013-10-27 19:45:00,
2013-10-27 16:50:00,44.1,42.8,29.89,West,277,1.0,15.0,95,0.00,,,0.34,Wunderground v.1.15,2013-10-27 19:50:00,
2013-10-27 16:55:00,43.9,42.6,29.89,West,274,1.0,15.0,95,0.00,,,0.34,Wunderground v.1.15,2013-10-27 19:55:00,
2013-10-27 17:00:00,43.9,42.6,29.89,SW,221,0.0,15.0,95,0.00,,,0.34,Wunderground v.1.15,2013-10-27 20:00:00,
2013-10-27 17:05:00,43.8,42.5,29.89,WSW,252,0.0,15.0,95,0.00,,,0.34,Wunderground v.1.15,2013-10-27 20:05:00,
2013-10-27 17:15:00,43.9,42.8,29.89,SSW,207,0.0,15.0,96,0.00,,,0.34,Wunderground v.1.15,2013-10-27 20:15:00,
2013-10-27 17:20:00,43.9,42.8,29.88,South,171,0.0,15.0,96,0.00,,,0.34,Wunderground v.1.15,2013-10-27 20:20:00,
2013-10-27 17:25:00,43.8,42.5,29.88,SW,221,0.0,15.0,95,0.00,,,0.34,Wunderground v.1.15,2013-10-27 20:25:00,
2013-10-27 17:30:00,43.6,42.3,29.88,SW,236,0.0,15.0,95,0.00,,,0.34,Wunderground v.1.15,2013-10-27 20:30:00,
2013-10-27 17:35:00,43.5,42.2,29.88,SW,226,0.0,15.0,95,0.00,,,0.34,Wunderground v.1.15,2013-10-27 20:35:00,
2013-10-27 17:45:00,43.2,41.9,29.88,SSW,205,0.0,15.0,95,0.00,,,0.34,Wunderground v.1.15,2013-10-27 20:45:00,
2013-10-27 17:50:00,42.9,41.6,29.89,SW,221,0.0,15.0,95,0.00,,,0.34,Wunderground v.1.15,2013-10-27 20:50:00,
2013-10-27 17:55:00,42.7,41.4,29.88,SW,229,0.0,15.0,95,0.00,,,0.34,Wunderground v.1.15,2013-10-27 20:55:00,
2013-10-27 18:00:00,42.6,41.5,29.88,SW,224,0.0,15.0,96,0.00,,,0.34,Wunderground v.1.15,2013-10-27 21:00:00,
2013-10-27 18:05:00,42.5,41.4,29.88,SSW,211,0.0,15.0,96,0.00,,,0.34,Wunderground v.1.15,2013-10-27 21:05:00,
2013-10-27 18:10:00,42.4,41.3,29.88,SSW,203,0.0,15.0,96,0.00,,,0.34,Wunderground v.1.15,2013-10-27 21:10:00,
2013-10-27 18:20:00,42.4,41.3,29.89,SSW,208,1.0,15.0,96,0.00,,,0.34,Wunderground v.1.15,2013-10-27 21:20:00,
2013-10-27 18:25:00,42.4,41.3,29.89,South,172,1.0,15.0,96,0.00,,,0.34,Wunderground v.1.15,2013-10-27 21:25:00,
2013-10-27 18:30:00,42.4,41.3,29.89,South,188,1.0,1.0,96,0.00,,,0.34,Wunderground v.1.15,2013-10-27 21:30:00,
2013-10-27 18:35:00,42.5,41.4,29.89,SSW,203,1.0,15.0,96,0.00,,,0.34,Wunderground v.1.15,2013-10-27 21:35:00,
2013-10-27 18:40:00,42.4,41.3,29.89,SSW,201,0.0,15.0,96,0.00,,,0.34,Wunderground v.1.15,2013-10-27 21:40:00,
2013-10-27 18:45:00,42.4,41.3,29.89,SSW,210,0.0,15.0,96,0.00,,,0.34,Wunderground v.1.15,2013-10-27 21:45:00,
2013-10-27 18:50:00,42.3,41.2,29.89,SSW,205,0.0,15.0,96,0.00,,,0.34,Wunderground v.1.15,2013-10-27 21:50:00,
2013-10-27 18:55:00,42.3,41.2,29.90,SW,214,0.0,15.0,96,0.00,,,0.34,Wunderground v.1.15,2013-10-27 21:55:00,
2013-10-27 19:00:00,42.2,41.1,29.90,SW,231,1.0,15.0,96,0.00,,,0.34,Wunderground v.1.15,2013-10-27 22:00:00,
2013-10-27 19:05:00,42.2,41.1,29.90,SSW,205,1.0,15.0,96,0.00,,,0.34,Wunderground v.1.15,2013-10-27 22:05:00,
2013-10-27 19:10:00,42.1,41.0,29.90,SSW,204,0.0,15.0,96,0.00,,,0.34,Wunderground v.1.15,2013-10-27 22:10:00,
2013-10-27 19:20:00,42.0,40.9,29.91,SW,233,1.0,1.0,96,0.00,,,0.34,Wunderground v.1.15,2013-10-27 22:20:00,
2013-10-27 19:25:00,42.0,40.9,29.92,SW,215,1.0,15.0,96,0.00,,,0.34,Wunderground v.1.15,2013-10-27 22:25:00,
2013-10-27 19:30:00,41.9,40.8,29.92,SSW,211,1.0,1.0,96,0.00,,,0.34,Wunderground v.1.15,2013-10-27 22:30:00,
2013-10-27 19:35:00,41.9,40.8,29.92,SSW,210,1.0,15.0,96,0.00,,,0.34,Wunderground v.1.15,2013-10-27 22:35:00,
2013-10-27 19:40:00,41.7,40.6,29.92,SW,218,1.0,1.0,96,0.00,,,0.34,Wunderground v.1.15,2013-10-27 22:40:00,
2013-10-27 19:45:00,41.7,40.6,29.92,SSW,203,1.0,15.0,96,0.00,,,0.34,Wunderground v.1.15,2013-10-27 22:45:00,
2013-10-27 19:50:00,41.7,40.6,29.92,SSW,200,1.0,15.0,96,0.00,,,0.34,Wunderground v.1.15,2013-10-27 22:50:00,
2013-10-27 20:00:00,41.4,40.1,29.92,SSW,195,0.0,15.0,95,0.00,,,0.34,Wunderground v.1.15,2013-10-27 23:00:00,
2013-10-27 20:05:00,41.2,39.9,29.92,SSW,206,1.0,15.0,95,0.00,,,0.34,Wunderground v.1.15,2013-10-27 23:05:00,
2013-10-27 20:10:00,40.9,39.6,29.93,South,171,1.0,1.0,95,0.00,,,0.34,Wunderground v.1.15,2013-10-27 23:10:00,
2013-10-27 20:15:00,40.7,39.4,29.92,SSW,204,1.0,15.0,95,0.00,,,0.34,Wunderground v.1.15,2013-10-27 23:15:00,
2013-10-27 20:20:00,40.4,39.1,29.92,South,186,1.0,15.0,95,0.00,,,0.34,Wunderground v.1.15,2013-10-27 23:20:00,
2013-10-27 20:30:00,39.5,38.2,29.93,South,188,1.0,15.0,95,0.00,,,0.34,Wunderground v.1.15,2013-10-27 23:30:00,
2013-10-27 20:35:00,39.2,37.9,29.93,South,190,1.0,15.0,95,0.00,,,0.34,Wunderground v.1.15,2013-10-27 23:35:00,
2013-10-27 20:40:00,39.1,38.1,29.93,SSW,193,1.0,15.0,96,0.00,,,0.34,Wunderground v.1.15,2013-10-27 23:40:00,
2013-10-27 20:45:00,39.2,38.2,29.93,South,190,1.0,15.0,96,0.00,,,0.34,Wunderground v.1.15,2013-10-27 23:45:00,
2013-10-27 20:50:00,39.5,38.5,29.93,SSW,210,1.0,15.0,96,0.00,,,0.34,Wunderground v.1.15,2013-10-27 23:50:00,
2013-10-27 21:00:00,39.9,38.9,29.93,SSW,192,1.0,15.0,96,0.00,,,0.34,Wunderground v.1.15,2013-10-28 00:00:00,
2013-10-27 21:05:00,40.0,39.0,29.94,SW,222,1.0,15.0,96,0.00,,,0.34,Wunderground v.1.15,2013-10-28 00:05:00,
2013-10-27 21:10:00,40.1,39.1,29.94,SSW,212,1.0,15.0,96,0.00,,,0.34,Wunderground v.1.15,2013-10-28 00:10:00,
2013-10-27 21:15:00,40.3,39.3,29.94,SW,218,0.0,15.0,96,0.00,,,0.34,Wunderground v.1.15,2013-10-28 00:15:00,
2013-10-27 21:20:00,40.5,39.4,29.94,SSW,208,1.0,15.0,96,0.00,,,0.34,Wunderground v.1.15,2013-10-28 00:20:00,
2013-10-27 21:25:00,40.7,39.6,29.94,SW,224,2.0,15.0,96,0.00,,,0.34,Wunderground v.1.15,2013-10-28 00:25:00,
2013-10-27 21:35:00,40.7,39.4,29.94,SSW,211,0.0,15.0,95,0.00,,,0.34,Wunderground v.1.15,2013-10-28 00:35:00,
2013-10-27 21:40:00,40.6,39.3,29.94,SSW,198,0.0,15.0,95,0.00,,,0.34,Wunderground v.1.15,2013-10-28 00:40:00,
2013-10-27 21:45:00,40.5,39.2,29.94,SSW,197,0.0,15.0,95,0.00,,,0.34,Wunderground v.1.15,2013-10-28 00:45:00,
2013-10-27 21:50:00,40.4,39.1,29.94,SSW,197,0.0,15.0,95,0.00,,,0.34,Wunderground v.1.15,2013-10-28 00:50:00,
2013-10-27 21:55:00,40.3,39.0,29.94,SSW,197,0.0,15.0,95,0.00,,,0.34,Wunderground v.1.15,2013-10-28 00:55:00,
2013-10-27 22:05:00,40.2,38.9,29.94,SSE,156,0.0,15.0,95,0.00,,,0.34,Wunderground v.1.15,2013-10-28 01:05:00,
2013-10-27 22:15:00,39.6,38.3,29.95,SSE,156,0.0,15.0,95,0.00,,,0.34,Wunderground v.1.15,2013-10-28 01:15:00,
2013-10-27 22:20:00,39.2,37.9,29.95,SSE,156,0.0,15.0,95,0.00,,,0.34,Wunderground v.1.15,2013-10-28 01:20:00,
2013-10-27 22:25:00,38.7,37.4,29.95,SSE,156,0.0,15.0,95,0.00,,,0.34,Wunderground v.1.15,2013-10-28 01:25:00,
2013-10-27 22:30:00,38.4,37.1,29.95,SSE,156,0.0,15.0,95,0.00,,,0.34,Wunderground v.1.15,2013-10-28 01:30:00,
2013-10-27 22:40:00,37.9,36.9,29.95,SSE,156,0.0,15.0,96,0.00,,,0.34,Wunderground v.1.15,2013-10-28 01:40:00,
2013-10-27 22:45:00,37.7,36.7,29.95,South,190,0.0,15.0,96,0.00,,,0.34,Wunderground v.1.15,2013-10-28 01:45:00,
2013-10-27 22:50:00,37.7,36.7,29.95,SSW,210,0.0,15.0,96,0.00,,,0.34,Wunderground v.1.15,2013-10-28 01:50:00,
2013-10-27 22:55:00,37.9,36.9,29.95,SSW,197,0.0,15.0,96,0.00,,,0.34,Wunderground v.1.15,2013-10-28 01:55:00,
2013-10-27 23:00:00,37.8,36.8,29.95,South,184,0.0,15.0,96,0.00,,,0.34,Wunderground v.1.15,2013-10-28 02:00:00,
2013-10-27 23:05:00,37.7,36.7,29.94,South,185,0.0,15.0,96,0.00,,,0.34,Wunderground v.1.15,2013-10-28 02:05:00,
2013-10-27 23:15:00,37.2,36.2,29.95,South,185,0.0,15.0,96,0.00,,,0.34,Wunderground v.1.15,2013-10-28 02:15:00,
2013-10-27 23:20:00,36.8,35.8,29.95,South,184,0.0,15.0,96,0.00,,,0.34,Wunderground v.1.15,2013-10-28 02:20:00,
2013-10-27 23:25:00,36.4,35.4,29.95,South,185,0.0,15.0,96,0.00,,,0.34,Wunderground v.1.15,2013-10-28 02:25:00,
2013-10-27 23:30:00,36.4,35.4,29.95,South,184,0.0,15.0,96,0.00,,,0.34,Wunderground v.1.15,2013-10-28 02:30:00,
2013-10-27 23:35:00,36.5,35.7,29.95,South,184,0.0,15.0,97,0.00,,,0.34,Wunderground v.1.15,2013-10-28 02:35:00,
2013-10-27 23:45:00,37.3,36.5,29.95,SSW,200,1.0,15.0,97,0.00,,,0.34,Wunderground v.1.15,2013-10-28 02:45:00,
2013-10-27 23:50:00,37.7,36.9,29.95,SSE,160,1.0,15.0,97,0.00,,,0.34,Wunderground v.1.15,2013-10-28 02:50:00,
2013-10-27 23:55:00,37.9,37.1,29.95,SSW,201,1.0,15.0,97,0.00,,,0.34,Wunderground v.1.15,2013-10-28 02:55:00,